| time (UTC) | temp F | wind direction | speed MPH | gust MPH | rain 1hr in | rain 24hr in | rain mn in | humidity % | barometer mb |
| 20260505124519 | 45 | 306 | 5.0 | 8.0 | 0.00 | 0.01 | 0.00 | 57 | 1008.7 |
| 20260505123522 | 45 | 290 | 5.0 | 11.0 | 0.00 | 0.01 | 0.00 | 58 | 1008.7 |
| 20260505122523 | 45 | 268 | 7.0 | 11.0 | 0.00 | 0.01 | 0.00 | 57 | 1008.5 |
| 20260505121519 | 44 | 280 | 4.0 | 6.0 | 0.00 | 0.01 | 0.00 | 61 | 1008.2 |
| 20260505120518 | 44 | 287 | 3.0 | 6.0 | 0.00 | 0.01 | 0.00 | 58 | 1008.1 |
| 20260505115519 | 43 | 301 | 4.0 | 9.0 | 0.00 | 0.01 | 0.00 | 59 | 1007.7 |
| 20260505114519 | 42 | 277 | 4.0 | 7.0 | 0.00 | 0.01 | 0.00 | 61 | 1007.2 |
| 20260505113521 | 40 | 273 | 4.0 | 5.0 | 0.00 | 0.01 | 0.00 | 65 | 1007.0 |
| 20260505112522 | 39 | 326 | 1.0 | 2.0 | 0.00 | 0.01 | 0.00 | 70 | 1006.5 |
| 20260505111523 | 39 | 285 | 0.0 | 1.0 | 0.00 | 0.01 | 0.00 | 69 | 1006.6 |
| 20260505110523 | 39 | 279 | 0.0 | 1.0 | 0.00 | 0.01 | 0.00 | 69 | 1006.5 |
| 20260505101526 | 40 | 251 | 3.0 | 5.0 | 0.00 | 0.01 | 0.00 | 67 | 1006.4 |
| 20260505100524 | 41 | 302 | 1.0 | 2.0 | 0.00 | 0.01 | 0.00 | 66 | 1006.3 |
| 20260505095546 | 42 | 238 | 0.0 | 2.0 | 0.00 | 0.01 | 0.00 | 64 | 1006.2 |
| 20260505094544 | 43 | 356 | 1.0 | 2.0 | 0.00 | 0.01 | 0.00 | 60 | 1006.1 |
| 20260505093606 | 44 | 253 | 1.0 | 2.0 | 0.00 | 0.01 | 0.00 | 59 | 1006.2 |
| 20260505092547 | 44 | 255 | 1.0 | 2.0 | 0.00 | 0.01 | 0.00 | 57 | 1006.2 |
| 20260505091525 | 44 | 254 | 1.0 | 2.0 | 0.00 | 0.01 | 0.00 | 57 | 1006.1 |
| 20260505090524 | 44 | 295 | 1.0 | 2.0 | 0.00 | 0.01 | 0.00 | 57 | 1006.2 |
| 20260505085526 | 45 | 304 | 1.0 | 2.0 | 0.00 | 0.01 | 0.00 | 57 | 1006.0 |
| 20260505084526 | 45 | 313 | 1.0 | 3.0 | 0.00 | 0.01 | 0.00 | 57 | 1005.7 |
| 20260505083526 | 45 | 307 | 1.0 | 3.0 | 0.00 | 0.01 | 0.00 | 55 | 1005.7 |
| 20260505082524 | 46 | 337 | 3.0 | 8.0 | 0.00 | 0.01 | 0.00 | 54 | 1005.4 |
| 20260505081546 | 46 | 5 | 3.0 | 5.0 | 0.00 | 0.01 | 0.00 | 54 | 1005.1 |
| 20260505080523 | 46 | 3 | 2.0 | 10.0 | 0.00 | 0.01 | 0.00 | 53 | 1004.9 |
| 20260505075525 | 47 | 5 | 6.0 | 10.0 | 0.00 | 0.01 | 0.00 | 52 | 1004.6 |
| 20260505074525 | 47 | 14 | 3.0 | 9.0 | 0.00 | 0.01 | 0.00 | 50 | 1004.3 |
| 20260505073524 | 48 | 349 | 5.0 | 9.0 | 0.00 | 0.01 | 0.00 | 49 | 1004.4 |
| 20260505072520 | 48 | 351 | 6.0 | 11.0 | 0.00 | 0.01 | 0.00 | 48 | 1004.3 |
| 20260505071523 | 48 | 352 | 7.0 | 15.0 | 0.00 | 0.01 | 0.00 | 49 | 1004.4 |
| 20260505070520 | 48 | 9 | 8.0 | 13.0 | 0.00 | 0.01 | 0.00 | 50 | 1004.2 |
| 20260505065519 | 49 | 7 | 7.0 | 14.0 | 0.00 | 0.01 | 0.00 | 51 | 1004.0 |
| 20260505064541 | 49 | 4 | 5.0 | 10.0 | 0.00 | 0.01 | 0.00 | 49 | 1003.9 |
| 20260505063522 | 49 | 334 | 7.0 | 11.0 | 0.00 | 0.01 | 0.00 | 48 | 1003.7 |
| 20260505062522 | 50 | 339 | 7.0 | 11.0 | 0.00 | 0.01 | 0.00 | 48 | 1003.6 |
| 20260505061520 | 50 | 338 | 8.0 | 14.0 | 0.00 | 0.01 | 0.00 | 47 | 1003.7 |
| 20260505060520 | 50 | 342 | 7.0 | 12.0 | 0.00 | 0.01 | 0.00 | 47 | 1003.6 |
| 20260505055521 | 51 | 341 | 8.0 | 17.0 | 0.00 | 0.01 | 0.00 | 48 | 1003.7 |
| 20260505054521 | 51 | 338 | 9.0 | 13.0 | 0.00 | 0.01 | 0.00 | 49 | 1003.5 |
| 20260505053603 | 51 | 347 | 6.0 | 11.0 | 0.00 | 0.01 | 0.00 | 50 | 1003.4 |
| 20260505052520 | 52 | 340 | 7.0 | 12.0 | 0.00 | 0.01 | 0.00 | 49 | 1003.2 |
| 20260505051523 | 52 | 354 | 6.0 | 12.0 | 0.00 | 0.01 | 0.00 | 49 | 1003.1 |
| 20260505050525 | 53 | 349 | 10.0 | 15.0 | 0.00 | 0.01 | 0.00 | 49 | 1002.9 |
| 20260505041519 | 55 | 309 | 6.0 | 10.0 | 0.00 | 0.01 | 0.01 | 48 | 1001.9 |
| 20260505040522 | 55 | 306 | 6.0 | 12.0 | 0.00 | 0.01 | 0.01 | 47 | 1001.9 |
| 20260505035524 | 55 | 302 | 6.0 | 10.0 | 0.00 | 0.01 | 0.01 | 47 | 1001.8 |
| 20260505034521 | 55 | 306 | 5.0 | 9.0 | 0.00 | 0.01 | 0.01 | 48 | 1001.8 |
| 20260505033522 | 54 | 305 | 5.0 | 11.0 | 0.00 | 0.01 | 0.01 | 47 | 1001.4 |
| 20260505032539 | 54 | 293 | 4.0 | 7.0 | 0.00 | 0.01 | 0.01 | 47 | 1001.5 |
| 20260505031519 | 55 | 300 | 3.0 | 5.0 | 0.00 | 0.01 | 0.01 | 46 | 1001.3 |
| 20260505030520 | 56 | 294 | 3.0 | 7.0 | 0.00 | 0.01 | 0.01 | 44 | 1001.1 |
| 20260505025521 | 57 | 296 | 4.0 | 6.0 | 0.00 | 0.01 | 0.01 | 42 | 1001.0 |
| 20260505024521 | 57 | 296 | 4.0 | 9.0 | 0.00 | 0.01 | 0.01 | 41 | 1000.7 |
| 20260505023540 | 58 | 300 | 5.0 | 9.0 | 0.00 | 0.01 | 0.01 | 41 | 1000.3 |
| 20260505022521 | 59 | 298 | 4.0 | 8.0 | 0.00 | 0.01 | 0.01 | 40 | 1000.0 |
| 20260505021542 | 60 | 313 | 6.0 | 9.0 | 0.00 | 0.01 | 0.01 | 39 | 999.6 |
| 20260505020520 | 61 | 314 | 7.0 | 11.0 | 0.00 | 0.01 | 0.01 | 37 | 999.0 |
| 20260505015521 | 61 | 310 | 8.0 | 15.0 | 0.00 | 0.01 | 0.01 | 38 | 999.3 |
| 20260505014519 | 60 | 311 | 7.0 | 12.0 | 0.00 | 0.01 | 0.01 | 41 | 999.3 |
| 20260505013522 | 60 | 300 | 4.0 | 9.0 | 0.00 | 0.01 | 0.01 | 42 | 999.2 |
| 20260505012544 | 61 | 299 | 4.0 | 8.0 | 0.00 | 0.01 | 0.01 | 42 | 999.1 |
| 20260505011523 | 63 | 299 | 6.0 | 11.0 | 0.00 | 0.01 | 0.01 | 39 | 998.9 |
| 20260505010519 | 63 | 310 | 7.0 | 12.0 | 0.00 | 0.01 | 0.01 | 37 | 998.6 |
| 20260505005519 | 64 | 312 | 7.0 | 13.0 | 0.00 | 0.01 | 0.01 | 37 | 998.3 |
| 20260505004519 | 65 | 318 | 9.0 | 16.0 | 0.00 | 0.01 | 0.01 | 36 | 998.0 |
| 20260505003540 | 66 | 325 | 7.0 | 12.0 | 0.00 | 0.01 | 0.01 | 36 | 997.9 |
| 20260505002522 | 67 | 314 | 9.0 | 13.0 | 0.00 | 0.01 | 0.01 | 35 | 997.8 |
| 20260505001540 | 68 | 316 | 9.0 | 17.0 | 0.00 | 0.01 | 0.01 | 36 | 997.5 |
| 20260505000519 | 69 | 317 | 8.0 | 13.0 | 0.00 | 0.01 | 0.01 | 37 | 997.4 |
| 20260504235520 | 70 | 306 | 9.0 | 15.0 | 0.00 | 0.01 | 0.01 | 37 | 997.2 |
| 20260504234520 | 71 | 313 | 8.0 | 14.0 | 0.00 | 0.01 | 0.01 | 37 | 996.9 |
| 20260504233520 | 72 | 309 | 9.0 | 14.0 | 0.00 | 0.01 | 0.01 | 38 | 996.9 |
| 20260504232520 | 72 | 304 | 9.0 | 16.0 | 0.00 | 0.01 | 0.01 | 39 | 996.8 |
| 20260504231521 | 73 | 317 | 9.0 | 14.0 | 0.00 | 0.01 | 0.01 | 39 | 996.7 |
| 20260504230522 | 73 | 314 | 12.0 | 20.0 | 0.00 | 0.01 | 0.01 | 38 | 996.6 |
| 20260504225521 | 73 | 322 | 8.0 | 13.0 | 0.00 | 0.01 | 0.01 | 39 | 996.6 |
| 20260504224544 | 74 | 317 | 9.0 | 14.0 | 0.00 | 0.01 | 0.01 | 39 | 996.6 |
| 20260504223520 | 76 | 307 | 9.0 | 21.0 | 0.00 | 0.01 | 0.01 | 38 | 996.3 |
| 20260504222519 | 76 | 299 | 9.0 | 19.0 | 0.00 | 0.01 | 0.01 | 38 | 996.1 |
| 20260504221518 | 76 | 294 | 8.0 | 14.0 | 0.00 | 0.01 | 0.01 | 39 | 996.0 |
| 20260504220519 | 77 | 277 | 14.0 | 25.0 | 0.00 | 0.01 | 0.01 | 35 | 995.8 |
| 20260504215524 | 76 | 285 | 9.0 | 20.0 | 0.01 | 0.01 | 0.01 | 37 | 995.7 |
| 20260504214521 | 76 | 272 | 10.0 | 16.0 | 0.01 | 0.01 | 0.01 | 37 | 995.7 |
| 20260504213623 | 76 | 273 | 8.0 | 15.0 | 0.01 | 0.01 | 0.01 | 37 | 995.7 |
| 20260504212519 | 76 | 278 | 9.0 | 18.0 | 0.01 | 0.01 | 0.01 | 37 | 995.8 |
| 20260504211520 | 75 | 277 | 6.0 | 11.0 | 0.01 | 0.01 | 0.01 | 41 | 995.9 |
| 20260504210522 | 74 | 281 | 7.0 | 12.0 | 0.01 | 0.01 | 0.01 | 44 | 996.0 |
| 20260504205519 | 75 | 277 | 11.0 | 18.0 | 0.00 | 0.00 | 0.00 | 36 | 996.1 |
| 20260504204520 | 75 | 276 | 10.0 | 16.0 | 0.00 | 0.00 | 0.00 | 36 | 996.1 |
| 20260504203522 | 76 | 269 | 10.0 | 20.0 | 0.00 | 0.00 | 0.00 | 35 | 996.3 |
| 20260504202521 | 76 | 271 | 11.0 | 16.0 | 0.00 | 0.00 | 0.00 | 37 | 996.3 |
| 20260504201543 | 76 | 280 | 11.0 | 19.0 | 0.00 | 0.00 | 0.00 | 37 | 996.4 |
| 20260504200521 | 76 | 276 | 11.0 | 22.0 | 0.00 | 0.00 | 0.00 | 37 | 996.5 |
| 20260504195542 | 76 | 274 | 11.0 | 19.0 | 0.00 | 0.00 | 0.00 | 38 | 996.6 |
| 20260504194520 | 75 | 277 | 10.0 | 19.0 | 0.00 | 0.00 | 0.00 | 40 | 996.7 |
| 20260504193518 | 75 | 272 | 9.0 | 21.0 | 0.00 | 0.00 | 0.00 | 40 | 996.8 |
| 20260504192521 | 74 | 273 | 12.0 | 21.0 | 0.00 | 0.00 | 0.00 | 39 | 996.9 |
| 20260504191521 | 75 | 276 | 12.0 | 23.0 | 0.00 | 0.00 | 0.00 | 39 | 997.0 |
| 20260504190521 | 75 | 276 | 10.0 | 18.0 | 0.00 | 0.00 | 0.00 | 39 | 997.0 |
| 20260504185545 | 75 | 269 | 11.0 | 21.0 | 0.00 | 0.00 | 0.00 | 38 | 997.1 |
| 20260504183519 | 75 | 276 | 12.0 | 22.0 | 0.00 | 0.00 | 0.00 | 38 | 997.3 |
| 20260504182520 | 75 | 270 | 14.0 | 23.0 | 0.00 | 0.00 | 0.00 | 37 | 997.3 |
| 20260504181519 | 75 | 271 | 11.0 | 21.0 | 0.00 | 0.00 | 0.00 | 37 | 997.3 |
| 20260504180524 | 75 | 271 | 11.0 | 22.0 | 0.00 | 0.00 | 0.00 | 37 | 997.4 |
| 20260504175520 | 74 | 271 | 15.0 | 26.0 | 0.00 | 0.00 | 0.00 | 36 | 997.3 |
| 20260504174602 | 74 | 272 | 10.0 | 19.0 | 0.00 | 0.00 | 0.00 | 37 | 997.3 |
| 20260504173540 | 74 | 271 | 10.0 | 21.0 | 0.00 | 0.00 | 0.00 | 36 | 997.4 |
| 20260504172521 | 74 | 270 | 11.0 | 22.0 | 0.00 | 0.00 | 0.00 | 36 | 997.4 |
| 20260504171520 | 74 | 267 | 11.0 | 18.0 | 0.00 | 0.00 | 0.00 | 35 | 997.5 |
| 20260504170520 | 73 | 270 | 11.0 | 18.0 | 0.00 | 0.00 | 0.00 | 36 | 997.6 |
| 20260504150519 | 68 | 267 | 10.0 | 16.0 | 0.00 | 0.00 | 0.00 | 40 | 999.3 |
| 20260504140520 | 64 | 261 | 9.0 | 14.0 | 0.00 | 0.00 | 0.00 | 42 | 1000.1 |